| time (UTC) | temp C | wind direction | speed KPH | gust KPH | rain 1hr cm | rain 24hr cm | rain mn cm | humidity % | barometer mb |
| 20260503185356 | 17 | 218 | 27.4 | 32.2 | 0.08 | 0.20 | 0.20 | 50 | 976.2 |
| 20260503184356 | 17 | 219 | 25.7 | 33.8 | 0.08 | 0.20 | 0.20 | 50 | 976.2 |
| 20260503181956 | 16 | 215 | 24.1 | 35.4 | 0.15 | 0.18 | 0.18 | 51 | 976.5 |
| 20260503180055 | 16 | 223 | 22.5 | 29.0 | 0.13 | 0.15 | 0.15 | 53 | 976.8 |
| 20260503175755 | 16 | 230 | 24.1 | 30.6 | 0.13 | 0.15 | 0.15 | 53 | 977.1 |
| 20260503175256 | 15 | 223 | 25.7 | 32.2 | 0.13 | 0.15 | 0.15 | 54 | 976.9 |
| 20260503174256 | 15 | 218 | 29.0 | 37.0 | 0.10 | 0.10 | 0.10 | 54 | 977.2 |
| 20260503172556 | 15 | 219 | 27.4 | 38.6 | 0.03 | 0.05 | 0.05 | 54 | 977.5 |
| 20260503171556 | 14 | 224 | 24.1 | 29.0 | 0.03 | 0.03 | 0.03 | 56 | 977.7 |
| 20260503170556 | 13 | 226 | 20.9 | 27.4 | 0.00 | 0.03 | 0.03 | 60 | 978.0 |
| 20260503081043 | 7 | 239 | 9.7 | 14.5 | 0.00 | 0.00 | 0.00 | 61 | 981.0 |
| 20260503072042 | 7 | 250 | 11.3 | 14.5 | 0.00 | 0.00 | 0.00 | 62 | 981.3 |
| 20260503071042 | 7 | 229 | 9.7 | 12.9 | 0.00 | 0.00 | 0.00 | 61 | 981.3 |
| 20260503055042 | 6 | 250 | 6.4 | 8.0 | 0.00 | 0.00 | 0.00 | 63 | 982.0 |
| 20260503054042 | 7 | 247 | 6.4 | 9.7 | 0.00 | 0.00 | 0.00 | 63 | 982.1 |
| 20260503053044 | 7 | 240 | 8.0 | 11.3 | 0.00 | 0.00 | 0.00 | 63 | 982.2 |
| 20260503052043 | 6 | 232 | 8.0 | 9.7 | 0.00 | 0.00 | 0.00 | 64 | 982.2 |
| 20260503051042 | 6 | 246 | 8.0 | 11.3 | 0.00 | 0.00 | 0.00 | 65 | 982.4 |
| 20260503050043 | 7 | 238 | 8.0 | 12.9 | 0.00 | 0.00 | 0.00 | 63 | 982.4 |
| 20260503045042 | 7 | 235 | 11.3 | 14.5 | 0.00 | 0.00 | 0.00 | 62 | 982.4 |
| 20260503044042 | 7 | 245 | 8.0 | 11.3 | 0.00 | 0.00 | 0.00 | 63 | 982.5 |
| 20260503043042 | 6 | 246 | 8.0 | 11.3 | 0.00 | 0.00 | 0.00 | 65 | 982.5 |
| 20260503042042 | 6 | 243 | 8.0 | 11.3 | 0.00 | 0.00 | 0.00 | 69 | 982.6 |
| 20260503041043 | 5 | 228 | 4.8 | 6.4 | 0.00 | 0.00 | 0.00 | 73 | 982.7 |
| 20260503040043 | 5 | 216 | 4.8 | 8.0 | 0.00 | 0.00 | 0.00 | 74 | 982.8 |
| 20260503035042 | 5 | 224 | 6.4 | 11.3 | 0.00 | 0.00 | 0.00 | 74 | 982.9 |
| 20260503033053 | -17 | 218 | 8.0 | 0.0 | 0.00 | 0.00 | 0.00 | ||
| 20260503033042 | 5 | 218 | 8.0 | 11.3 | 0.00 | 0.00 | 0.00 | 72 | 983.0 |
| 20260503032042 | 5 | 220 | 8.0 | 9.7 | 0.00 | 0.00 | 0.00 | 74 | 983.2 |
| 20260503031042 | 4 | 213 | 4.8 | 6.4 | 0.00 | 0.00 | 0.00 | 77 | 983.2 |
| 20260503030042 | 4 | 208 | 4.8 | 6.4 | 0.00 | 0.00 | 0.00 | 76 | 983.4 |
| 20260503025042 | 4 | 228 | 4.8 | 6.4 | 0.00 | 0.00 | 0.00 | 78 | 983.5 |
| 20260503024042 | 4 | 228 | 3.2 | 4.8 | 0.00 | 0.00 | 0.00 | 79 | 983.5 |
| 20260503023042 | 5 | 217 | 3.2 | 4.8 | 0.00 | 0.00 | 0.00 | 77 | 983.5 |
| 20260503022042 | 5 | 199 | 1.6 | 3.2 | 0.00 | 0.00 | 0.00 | 76 | 983.6 |
| 20260503021041 | 5 | 156 | 1.6 | 3.2 | 0.00 | 0.00 | 0.00 | 76 | 983.6 |
| 20260503020042 | 5 | 156 | 3.2 | 4.8 | 0.00 | 0.00 | 0.00 | 76 | 983.6 |
| 20260503015041 | 5 | 184 | 4.8 | 8.0 | 0.00 | 0.00 | 0.00 | 77 | 983.5 |
| 20260503014042 | 5 | 145 | 3.2 | 6.4 | 0.00 | 0.00 | 0.00 | 75 | 983.5 |
| 20260503013043 | 6 | 146 | 3.2 | 4.8 | 0.00 | 0.00 | 0.00 | 74 | 983.4 |
| 20260503012041 | 6 | 188 | 3.2 | 6.4 | 0.00 | 0.00 | 0.00 | 73 | 983.4 |
| 20260503011041 | 6 | 116 | 3.2 | 3.2 | 0.00 | 0.00 | 0.00 | 72 | 983.4 |
| 20260503010041 | 6 | 137 | 4.8 | 6.4 | 0.00 | 0.00 | 0.00 | 71 | 983.4 |
| 20260503005042 | 6 | 150 | 1.6 | 4.8 | 0.00 | 0.00 | 0.00 | 71 | 983.5 |
| 20260503004042 | 7 | 151 | 3.2 | 6.4 | 0.00 | 0.00 | 0.00 | 69 | 983.5 |
| 20260503003042 | 7 | 169 | 4.8 | 6.4 | 0.00 | 0.00 | 0.00 | 68 | 983.6 |
| 20260503002042 | 7 | 178 | 6.4 | 9.7 | 0.00 | 0.00 | 0.00 | 66 | 983.6 |
| 20260503001041 | 8 | 165 | 8.0 | 12.9 | 0.00 | 0.00 | 0.00 | 63 | 983.6 |
| 20260503000041 | 8 | 184 | 3.2 | 4.8 | 0.00 | 0.00 | 0.00 | 62 | 983.7 |
| 20260502235041 | 8 | 154 | 4.8 | 8.0 | 0.00 | 0.00 | 0.00 | 61 | 983.8 |
| 20260502234041 | 8 | 167 | 8.0 | 11.3 | 0.00 | 0.00 | 0.00 | 61 | 983.8 |
| 20260502232041 | 8 | 95 | 9.7 | 14.5 | 0.00 | 0.00 | 0.00 | 64 | 984.1 |
| 20260502231043 | 9 | 131 | 6.4 | 9.7 | 0.00 | 0.00 | 0.00 | 57 | 984.2 |
| 20260502230041 | 9 | 118 | 8.0 | 9.7 | 0.00 | 0.00 | 0.00 | 55 | 984.2 |
| 20260502225041 | 8 | 126 | 4.8 | 4.8 | 0.00 | 0.00 | 0.00 | 57 | 984.4 |
| 20260502224041 | 9 | 155 | 4.8 | 9.7 | 0.00 | 0.00 | 0.00 | 54 | 984.4 |
| 20260502223041 | 9 | 142 | 4.8 | 8.0 | 0.00 | 0.00 | 0.00 | 54 | 984.5 |
| 20260502222041 | 9 | 151 | 9.7 | 12.9 | 0.00 | 0.00 | 0.00 | 53 | 984.6 |
| 20260502221042 | 9 | 170 | 8.0 | 12.9 | 0.00 | 0.00 | 0.00 | 52 | 984.7 |
| 20260502220041 | 9 | 131 | 4.8 | 9.7 | 0.00 | 0.00 | 0.00 | 55 | 984.8 |
| 20260502215041 | 10 | 168 | 6.4 | 11.3 | 0.00 | 0.00 | 0.00 | 51 | 984.8 |
| 20260502214041 | 9 | 134 | 4.8 | 9.7 | 0.00 | 0.00 | 0.00 | 55 | 984.9 |
| 20260502212041 | 9 | 144 | 6.4 | 9.7 | 0.00 | 0.00 | 0.00 | 54 | 985.1 |
| 20260502211041 | 10 | 124 | 6.4 | 11.3 | 0.00 | 0.00 | 0.00 | 52 | 985.0 |
| 20260502210041 | 9 | 151 | 6.4 | 9.7 | 0.00 | 0.00 | 0.00 | 53 | 985.1 |
| 20260502205041 | 10 | 121 | 9.7 | 14.5 | 0.00 | 0.00 | 0.00 | 51 | 985.2 |
| 20260502204041 | 9 | 121 | 8.0 | 16.1 | 0.00 | 0.00 | 0.00 | 54 | 985.4 |
| 20260502203041 | 8 | 137 | 4.8 | 8.0 | 0.00 | 0.00 | 0.00 | 55 | 985.7 |
| 20260502202041 | 8 | 159 | 8.0 | 11.3 | 0.00 | 0.00 | 0.00 | 52 | 985.8 |
| 20260502201041 | 10 | 113 | 6.4 | 11.3 | 0.00 | 0.00 | 0.00 | 52 | 985.8 |
| 20260502200041 | 9 | 170 | 9.7 | 16.1 | 0.00 | 0.00 | 0.00 | 52 | 986.0 |
| 20260502195041 | 9 | 151 | 8.0 | 12.9 | 0.00 | 0.00 | 0.00 | 52 | 986.2 |
| 20260502194041 | 8 | 132 | 11.3 | 14.5 | 0.00 | 0.00 | 0.00 | 52 | 986.4 |
| 20260502193041 | 8 | 80 | 9.7 | 12.9 | 0.00 | 0.00 | 0.00 | 53 | 986.5 |
| 20260502191041 | 8 | 93 | 6.4 | 9.7 | 0.00 | 0.00 | 0.00 | 53 | 986.6 |
| 20260502190041 | 8 | 132 | 8.0 | 12.9 | 0.00 | 0.00 | 0.00 | 52 | 986.7 |